Regional Weather Roundup
Issued by NWS Cleveland, OH

Home | Current Version | Previous Version | Graphics & Text | Print | Product List | Glossary On
Versions: 1 2 3 4 5 6 7 8 9 10 11 12 13 14 15 16 17 18 19 20 21 22 23 24 25 26 27 28 29 30 31 32 33 34 35 36 37 38 39 40 41 42 43 44 45 46 47 48 49 50
534
ASUS41 KCLE 281902
RWRCLE
OHIO REGIONAL WEATHER ROUNDUP
NATIONAL WEATHER SERVICE CLEVELAND, OH
300 PM EDT SUN MAY 28 2017

NOTE: "FAIR" INDICATES FEW OR NO CLOUDS BELOW 12,000 FEET WITH NO
SIGNIFICANT WEATHER AND/OR OBSTRUCTIONS TO VISIBILITY.

OHZ001>008-015>018-024>027-034-035-043-044-282000-
   NORTHWEST OHIO

CITY           SKY/WX    TMP DP  RH WIND       PRES   REMARKS
DEFIANCE       PTSUNNY   73  64  73 SE6       29.68F
FINDLAY        CLOUDY    75  65  70 S5        29.69F
TOLEDO EXPRESS PTSUNNY   73  67  81 SE8       29.69F
TOLEDO EXEC    CLOUDY    74  64  71 SE3       29.70F
LIMA           PTSUNNY   76  64  66 SW18G25   29.71F
$$

OHZ009>014-019>023-028>033-038-089-282000-
   NORTHEAST OHIO

CITY           SKY/WX    TMP DP  RH WIND       PRES   REMARKS
CLE-HOPKINS    CLOUDY    77  66  68 S12       29.73F
CLE-LAKEFRONT  CLOUDY    67  60  78 NE13      29.70F
CUY CO. ARPT   PTSUNNY   79  64  61 N7        29.72F
LORAIN-ELYRIA  CLOUDY    73  63  70 S8        29.72F
ASHTABULA      MOSUNNY   77  63  61 SE5       29.73F
AKRON-CANTON   PTSUNNY   76  65  68 SW8       29.75F
WOOSTER        PTSUNNY   76  65  68 S7        29.74F
MANSFIELD      PTSUNNY   77  65  66 S13       29.73F
YOUNGSTOWN     CLOUDY    74  65  73 S9        29.74F
$$

OHZ042-051>053-060>062-070>072-077>081-282000-
  SOUTHWEST OHIO

CITY           SKY/WX    TMP DP  RH WIND       PRES   REMARKS
CINC-COVINGTON CLOUDY    73  62  68 W10       29.80S
CINC-LUNKEN    CLOUDY    74  64  71 SW16G22   29.79S
HAMILTON       CLOUDY    74  64  71 SW12      29.79S
DAYTON         CLOUDY    74  61  63 SW20G26   29.77S
WRIGHT-PAT AFB MOSUNNY   76  66  70 SW14      29.75F
DAYTON GENERAL PTSUNNY   74  61  63 W13G20    29.77S
WILMINGTON     PTSUNNY   75  65  70 W15       29.78R
$$

OHZ036-037-039>041-045>050-054>059-063>069-073>076-082>088-282000-
  CENTRAL AND SOUTHEAST OHIO

CITY           SKY/WX    TMP DP  RH WIND       PRES   REMARKS
COLUMBUS       CLOUDY    78  64  61 SW17      29.75F
OSU AIRPORT    CLOUDY    76  65  68 SW16      29.75S
BOLTON FIELD   PTSUNNY   77  64  65 SW17      29.77S
RICKENBACK AFB PTSUNNY   77  64  63 SW14G20   29.75F
NEWARK         PTSUNNY   76  64  66 S10       29.75F
MARION         PTSUNNY   78  64  61 SW18G26   29.72F
LANCASTER      MOSUNNY   79  64  60 S13G20    29.77S
ZANESVILLE     PTSUNNY   79  64  60 SW9       29.76R
NEW PHILLY     NOT AVBL
$$




USA.gov is the U.S. government's official web portal to all federal, state and local government web resources and services.